• In Deutschland
  • Länderverzeichnis
  • Für 7 Tage
  • Wassertemperatur
  • Satellitenkarten
  • Wetterkarte
  • Widgets
  • user-avatar
    Anmelden

    Stündliche Wetter Ali Bajramli

    Heute, 30 April, Sonntag

    Zeit Temperatur Niederschläge Wind Luftdruck Luftfeuchtigkeit
    00:00 +14°C° 0 mm 1 m/S 762 mmHg 68%
    01:00 +13°C° 0 mm 1 m/S 761 mmHg 70%
    02:00 +13°C° 0 mm 1 m/S 761 mmHg 71%
    03:00 +13°C° 0 mm 1 m/S 760 mmHg 73%
    04:00 +13°C° 0 mm 1 m/S 761 mmHg 71%
    05:00 +14°C° 0 mm 1 m/S 761 mmHg 68%
    06:00 +15°C° 0 mm 1 m/S 761 mmHg 66%
    07:00 +16°C° 0 mm 1 m/S 761 mmHg 61%
    08:00 +19°C° 0 mm 1 m/S 760 mmHg 56%
    09:00 +20°C° 0 mm 2 m/S 761 mmHg 50%
    10:00 +21°C° 0 mm 2 m/S 761 mmHg 47%
    11:00 +24°C° 0 mm 2 m/S 760 mmHg 44%
    12:00 +25°C° 0 mm 2 m/S 760 mmHg 41%
    13:00 +25°C° 0 mm 2 m/S 760 mmHg 40%
    14:00 +26°C° 0 mm 3 m/S 759 mmHg 39%
    15:00 +26°C° 0 mm 4 m/S 759 mmHg 37%
    16:00 +25°C° 0 mm 4 m/S 759 mmHg 41%
    17:00 +22°C° 0 mm 4 m/S 759 mmHg 44%
    18:00 +21°C° 0 mm 3 m/S 759 mmHg 48%
    19:00 +19°C° 0 mm 3 m/S 759 mmHg 51%
    20:00 +18°C° 0 mm 2 m/S 759 mmHg 54%
    21:00 +17°C° 0 mm 2 m/S 759 mmHg 58%
    22:00 +16°C° 0 mm 1 m/S 759 mmHg 59%
    23:00 +16°C° 0 mm 1 m/S 759 mmHg 60%

    Morgen, 1 Mai, Montag

    Zeit Temperatur Niederschläge Wind Luftdruck Luftfeuchtigkeit
    00:00 +15°C° 0 mm 1 m/S 759 mmHg 61%
    01:00 +15°C° 0 mm 1 m/S 759 mmHg 62%
    02:00 +15°C° 0 mm 1 m/S 759 mmHg 63%
    03:00 +14°C° 0 mm 1 m/S 759 mmHg 64%
    04:00 +15°C° 0 mm 1 m/S 759 mmHg 62%
    05:00 +16°C° 0 mm 1 m/S 759 mmHg 61%
    06:00 +18°C° 0 mm 1 m/S 759 mmHg 59%
    07:00 +20°C° 0 mm 1 m/S 759 mmHg 53%
    08:00 +21°C° 0 mm 2 m/S 760 mmHg 47%
    09:00 +24°C° 0 mm 2 m/S 760 mmHg 41%
    10:00 +26°C° 0 mm 2 m/S 760 mmHg 38%
    11:00 +27°C° 0 mm 2 m/S 759 mmHg 34%
    12:00 +29°C° 0 mm 2 m/S 759 mmHg 31%
    13:00 +29°C° 0 mm 2 m/S 759 mmHg 31%
    14:00 +29°C° 0 mm 3 m/S 759 mmHg 31%
    15:00 +29°C° 0 mm 4 m/S 758 mmHg 31%
    16:00 +28°C° 0 mm 4 m/S 758 mmHg 36%
    17:00 +26°C° 0 mm 4 m/S 759 mmHg 41%
    18:00 +23°C° 0 mm 4 m/S 759 mmHg 46%
    19:00 +21°C° 0 mm 3 m/S 759 mmHg 48%
    20:00 +20°C° 0 mm 3 m/S 759 mmHg 51%
    21:00 +18°C° 0 mm 2 m/S 760 mmHg 53%
    22:00 +18°C° 0 mm 2 m/S 760 mmHg 54%
    23:00 +18°C° 0 mm 2 m/S 760 mmHg 54%

    übermorgen, 2 Mai, Dienstag

    Zeit Temperatur Niederschläge Wind Luftdruck Luftfeuchtigkeit
    00:00 +18°C° 0 mm 1 m/S 759 mmHg 55%
    01:00 +18°C° 0 mm 1 m/S 759 mmHg 55%
    02:00 +18°C° 0 mm 1 m/S 759 mmHg 55%
    03:00 +18°C° 0 mm 1 m/S 759 mmHg 54%
    04:00 +18°C° 0 mm 1 m/S 759 mmHg 54%
    05:00 +19°C° 0 mm 1 m/S 759 mmHg 53%
    06:00 +19°C° 0 mm 1 m/S 759 mmHg 52%
    07:00 +21°C° 0 mm 1 m/S 759 mmHg 46%
    08:00 +21°C° 0 mm 0 m/S 759 mmHg 40%
    09:00 +22°C° 0 mm 0 m/S 760 mmHg 35%
    10:00 +26°C° 0 mm 1 m/S 759 mmHg 31%
    11:00 +27°C° 0 mm 2 m/S 759 mmHg 27%
    12:00 +29°C° 0 mm 3 m/S 759 mmHg 23%
    13:00 +29°C° 0 mm 4 m/S 758 mmHg 23%
    14:00 +29°C° 0 mm 4 m/S 758 mmHg 23%
    15:00 +29°C° 0 mm 5 m/S 757 mmHg 24%
    16:00 +27°C° 0 mm 5 m/S 757 mmHg 27%
    17:00 +25°C° 0 mm 4 m/S 757 mmHg 31%
    18:00 +23°C° 0 mm 4 m/S 757 mmHg 34%
    19:00 +22°C° 0 mm 3 m/S 757 mmHg 37%
    20:00 +21°C° 0 mm 2 m/S 758 mmHg 41%
    21:00 +21°C° 0 mm 1 m/S 758 mmHg 44%
    22:00 +20°C° 0 mm 1 m/S 758 mmHg 45%
    23:00 +20°C° 0 mm 1 m/S 757 mmHg 45%

    3 Mai, Mittwoch

    Zeit Temperatur Niederschläge Wind Luftdruck Luftfeuchtigkeit
    00:00 +20°C° 0 mm 1 m/S 757 mmHg 46%
    01:00 +20°C° 0 mm 1 m/S 757 mmHg 47%
    02:00 +19°C° 0 mm 1 m/S 756 mmHg 48%
    03:00 +19°C° 0 mm 1 m/S 756 mmHg 50%
    04:00 +20°C° 0 mm 1 m/S 756 mmHg 50%
    05:00 +20°C° 0 mm 1 m/S 756 mmHg 50%
    06:00 +19°C° 0 mm 0 m/S 756 mmHg 50%
    07:00 +22°C° 0 mm 1 m/S 756 mmHg 46%
    08:00 +24°C° 0 mm 1 m/S 756 mmHg 41%
    09:00 +25°C° 0 mm 1 m/S 756 mmHg 37%
    10:00 +27°C° 0 mm 1 m/S 756 mmHg 36%
    11:00 +28°C° 0 mm 1 m/S 755 mmHg 34%
    12:00 +29°C° 0 mm 2 m/S 755 mmHg 33%
    13:00 +30°C° 0 mm 2 m/S 755 mmHg 32%
    14:00 +30°C° 0 mm 2 m/S 754 mmHg 31%
    15:00 +30°C° 0 mm 3 m/S 754 mmHg 31%
    16:00 +29°C° 0 mm 3 m/S 754 mmHg 35%
    17:00 +27°C° 0 mm 3 m/S 754 mmHg 40%
    18:00 +26°C° 0 mm 3 m/S 754 mmHg 44%
    19:00 +24°C° 0,2 mm 3 m/S 754 mmHg 49%
    20:00 +23°C° 0,2 mm 2 m/S 755 mmHg 53%
    21:00 +20°C° 0,2 mm 2 m/S 755 mmHg 58%
    22:00 +20°C° 0 mm 2 m/S 755 mmHg 58%
    23:00 +20°C° 0 mm 2 m/S 755 mmHg 58%

    4 Mai, Donnerstag

    Zeit Temperatur Niederschläge Wind Luftdruck Luftfeuchtigkeit
    00:00 +20°C° 0 mm 1 m/S 755 mmHg 59%
    01:00 +19°C° 0 mm 2 m/S 755 mmHg 59%
    02:00 +19°C° 0 mm 2 m/S 755 mmHg 59%
    03:00 +18°C° 0 mm 2 m/S 755 mmHg 60%
    04:00 +18°C° 0 mm 2 m/S 755 mmHg 59%
    05:00 +19°C° 0 mm 2 m/S 755 mmHg 58%
    06:00 +19°C° 0 mm 2 m/S 755 mmHg 57%
    07:00 +20°C° 0,1 mm 2 m/S 756 mmHg 54%
    08:00 +21°C° 0,1 mm 2 m/S 756 mmHg 51%
    09:00 +23°C° 0,1 mm 2 m/S 756 mmHg 48%
    10:00 +24°C° 0 mm 2 m/S 756 mmHg 46%
    11:00 +26°C° 0 mm 2 m/S 756 mmHg 44%
    12:00 +27°C° 0 mm 2 m/S 756 mmHg 42%
    13:00 +27°C° 0 mm 2 m/S 756 mmHg 41%
    14:00 +28°C° 0 mm 3 m/S 756 mmHg 40%
    15:00 +28°C° 0 mm 4 m/S 755 mmHg 40%
    16:00 +27°C° 0 mm 4 m/S 755 mmHg 44%
    17:00 +26°C° 0 mm 5 m/S 756 mmHg 49%
    18:00 +25°C° 0 mm 5 m/S 756 mmHg 54%
    19:00 +22°C° 0,1 mm 5 m/S 756 mmHg 59%
    20:00 +21°C° 0,1 mm 4 m/S 756 mmHg 63%
    21:00 +19°C° 0,1 mm 3 m/S 757 mmHg 68%
    22:00 +19°C° 0 mm 3 m/S 757 mmHg 70%
    23:00 +18°C° 0 mm 2 m/S 757 mmHg 71%

    5 Mai, Freitag

    Zeit Temperatur Niederschläge Wind Luftdruck Luftfeuchtigkeit
    00:00 +17°C° 0 mm 2 m/S 757 mmHg 73%
    01:00 +18°C° 0 mm 1 m/S 757 mmHg 74%
    02:00 +18°C° 0 mm 1 m/S 757 mmHg 75%
    03:00 +16°C° 0 mm 1 m/S 757 mmHg 76%
    04:00 +18°C° 0 mm 1 m/S 757 mmHg 73%
    05:00 +19°C° 0 mm 1 m/S 757 mmHg 71%
    06:00 +19°C° 0 mm 1 m/S 758 mmHg 69%
    07:00 +20°C° 0 mm 2 m/S 758 mmHg 63%
    08:00 +23°C° 0 mm 2 m/S 758 mmHg 57%
    09:00 +24°C° 0 mm 2 m/S 758 mmHg 51%
    10:00 +26°C° 0 mm 3 m/S 758 mmHg 48%
    11:00 +27°C° 0 mm 3 m/S 757 mmHg 45%
    12:00 +28°C° 0 mm 4 m/S 757 mmHg 42%
    13:00 +28°C° 0 mm 4 m/S 757 mmHg 43%
    14:00 +28°C° 0 mm 5 m/S 757 mmHg 43%
    15:00 +28°C° 0 mm 5 m/S 756 mmHg 44%
    16:00 +26°C° 0 mm 5 m/S 756 mmHg 47%
    17:00 +25°C° 0 mm 5 m/S 757 mmHg 51%
    18:00 +22°C° 0 mm 5 m/S 757 mmHg 54%
    19:00 +21°C° 0 mm 5 m/S 757 mmHg 58%
    20:00 +20°C° 0 mm 4 m/S 757 mmHg 62%
    21:00 +19°C° 0 mm 4 m/S 758 mmHg 66%
    22:00 +18°C° 0 mm 3 m/S 758 mmHg 69%
    23:00 +18°C° 0 mm 3 m/S 757 mmHg 71%
    Mehr zeigen